TimeGMT,TemperatureF,Dew PointF,Humidity,Sea Level PressureIn,VisibilityMPH,Wind Direction,Wind SpeedMPH,Gust SpeedMPH,PrecipitationIn,Events,Conditions,WindDirDegrees,DateUTC
12:50 AM,42.8,39.2,87,30.48,6.2,NNW,9.2,-,N/A,,Mostly Cloudy,340,2013-03-01 00:50:00
1:50 AM,42.8,39.2,87,30.48,6.2,North,9.2,-,N/A,,Overcast,350,2013-03-01 01:50:00
2:50 AM,42,38,79,30.50,8,North,9.2,,,,Overcast,350,2013-03-01 02:50:00
2:50 AM,42.8,37.4,81,30.48,6.2,North,9.2,-,N/A,,Overcast,350,2013-03-01 02:50:00
3:50 AM,42.8,35.6,76,30.48,6.2,North,8.1,-,N/A,,Overcast,350,2013-03-01 03:50:00
4:50 AM,42.8,33.8,70,30.48,6.2,North,6.9,-,N/A,,Overcast,350,2013-03-01 04:50:00
5:50 AM,42,35,67,30.49,7,North,8.1,,,,,350,2013-03-01 05:50:00
6:50 AM,42.8,33.8,70,30.48,6.2,North,8.1,-,N/A,,Mostly Cloudy,350,2013-03-01 06:50:00
7:50 AM,41.0,35.6,81,30.51,6.2,NNW,9.2,-,N/A,,Overcast,340,2013-03-01 07:50:00
8:50 AM,42,38,81,30.53,7,NNW,11.5,,,,Light Haze,340,2013-03-01 08:50:00
8:50 AM,42.8,37.4,81,30.51,6.2,NNW,11.5,-,N/A,,Overcast,340,2013-03-01 08:50:00
9:50 AM,42.8,39.2,87,30.51,6.2,North,10.4,-,N/A,,Overcast,350,2013-03-01 09:50:00
10:50 AM,44.6,37.4,76,30.51,6.2,NNW,11.5,-,N/A,,Overcast,340,2013-03-01 10:50:00
11:50 AM,44,37,69,30.53,8,North,15.0,,,,Overcast,350,2013-03-01 11:50:00
11:50 AM,44.6,37.4,76,30.51,6.2,North,15.0,-,N/A,,Overcast,350,2013-03-01 11:50:00
12:50 PM,42.8,35.6,76,30.51,6.2,North,13.8,-,N/A,,Mostly Cloudy,360,2013-03-01 12:50:00
1:50 PM,42.8,35.6,76,30.51,6.2,North,12.7,-,N/A,,Mostly Cloudy,10,2013-03-01 13:50:00
2:50 PM,43,35,63,30.50,12,North,10.4,,,,Mostly Cloudy,0,2013-03-01 14:50:00
2:50 PM,42.8,35.6,76,30.48,6.2,North,10.4,-,N/A,,Mostly Cloudy,360,2013-03-01 14:50:00
3:50 PM,42.8,33.8,70,30.48,6.2,NNE,10.4,-,N/A,,Mostly Cloudy,20,2013-03-01 15:50:00
4:50 PM,41.0,33.8,76,30.48,6.2,North,4.6,-,N/A,,Unknown,360,2013-03-01 16:50:00
5:50 PM,39,34,76,30.49,10,NNW,3.5,,,,Scattered Clouds,330,2013-03-01 17:50:00
5:50 PM,39.2,33.8,81,30.48,6.2,NNW,3.5,-,N/A,,Partly Cloudy,330,2013-03-01 17:50:00
6:50 PM,37.4,33.8,87,30.48,6.2,WNW,3.5,-,N/A,,Scattered Clouds,300,2013-03-01 18:50:00
7:50 PM,35.6,33.8,93,30.48,6.2,WNW,3.5,-,N/A,,Mostly Cloudy,290,2013-03-01 19:50:00
8:50 PM,35,32,85,30.48,7,West,6.9,,,,,260,2013-03-01 20:50:00
8:50 PM,33.8,32.0,93,30.45,6.2,West,6.9,-,N/A,,Unknown,260,2013-03-01 20:50:00
9:50 PM,33.8,32.0,93,30.45,6.2,West,8.1,-,N/A,,Unknown,260,2013-03-01 21:50:00
10:50 PM,33.8,30.2,87,30.45,6.2,WSW,6.9,-,N/A,,Unknown,250,2013-03-01 22:50:00
11:50 PM,32,30,87,30.45,10,WSW,9.2,,,,,250,2013-03-01 23:50:00
11:50 PM,32.0,30.2,93,30.42,6.2,WSW,9.2,-,N/A,,Unknown,250,2013-03-01 23:50:00